Regional Weather Roundup
Issued by NWS Albany, NY

Home | Current Version | Previous Version | Text Only | Print | Product List | Glossary On
Versions: 1 2 3 4 5 6 7 8 9 10 11 12 13 14 15 16 17 18 19 20 21 22 23 24 25 26 27 28 29 30 31 32 33 34 35 36 37 38 39 40 41 42 43 44 45 46 47 48 49 50
000
ASUS41 KALY 301710
RWRALY

NEW YORK STATE HOURLY WEATHER ROUNDUP
NATIONAL WEATHER SERVICE ALBANY NY
100 PM EDT TUE JUN 30 2015

NOTE: "FAIR" INDICATES FEW OR NO CLOUDS BELOW 12,000 FEET WITH NO
SIGNIFICANT WEATHER AND/OR NO OBSTRUCTIONS TO VISIBILITY.

NYZ032-033-038>043-046>054-057>066-NYZ062>081-301800-
EAST


CITY           SKY/WX    TMP DP  RH WIND       PRES   REMARKS
ALBANY         LGT RAIN  68  60  75 W3        29.99R
GLENS FALLS    LGT RAIN  68  60  75 W5        29.98R
POUGHKEEPSIE   LGT RAIN  75  65  70 W6        29.95R
NEWBURGH       LGT RAIN  72  64  78 E7        29.97S
MONTGOMERY     LGT RAIN  68  66  93 N7        29.95F
WHITE PLAINS   MOSUNNY   78  56  46 S17G26    29.96S
ISLIP          MOSUNNY   79  58  48 S15       29.97S
NEW YORK CITY  PTSUNNY   79  53  40 S18G28    29.94F
CENTRAL PARK   PTSUNNY   79  57  46 MISG      29.98S
$$

NYZ005>009-017-018-044>046-055-056-301800-
CENTRAL


CITY           SKY/WX    TMP DP  RH WIND       PRES   REMARKS
FULTON         CLOUDY    64  60  87 VRB5      29.87F
SYRACUSE       CLOUDY    64  62  93 E9        29.87F
ROME           LGT RAIN  61  59  93 E12       29.93F
ELMIRA         CLOUDY    71  65  81 SW8       29.86F
BINGHAMTON     CLOUDY    65  63  93 SE10      29.91F
MONTICELLO     CLOUDY    63  61  94 E5        29.98F
$$

NYZ026>034-041>043-301800-
NORTH


CITY           SKY/WX    TMP DP  RH WIND       PRES   REMARKS
WATERTOWN      LGT RAIN  65  58  78 SE7       29.90S
FORT DRUM      NOT AVBL
MASSENA        CLOUDY    76  58  53 VRB3      29.91F
SARANAC LAKE   PTSUNNY   72  49  44 S13       29.94S
PLATTSBURGH    MOSUNNY   71  60  68 SE12      29.94F
$$

NYZ001>004-010>016-019>021-301800-
WEST


CITY           SKY/WX    TMP DP  RH WIND       PRES   REMARKS
NIAGARA FALLS  DRIZZLE   66  64  93 SW13      29.80S FOG
BUFFALO        CLOUDY    68  61  78 W8        29.81S
DUNKIRK        CLOUDY    67  62  84 VRB5      29.82R
JAMESTOWN      CLOUDY    66  59  77 SW7       29.86S
WELLSVILLE     PTSUNNY   68  60  75 SW10      29.89F
ROCHESTER      CLOUDY    70  64  81 CALM      29.82F
PENN YAN       PTSUNNY   72  63  73 S10       29.85F
$$

             KEY
       WCI = WIND CHILL INDEX
       VSB = VISIBILITY
       HX  = HEAT INDEX
$$


USA.gov is the U.S. government's official web portal to all federal, state and local government web resources and services.